TKJ4190 LTFG-LTAC

Flight info

Callsign TKJ4190
Flight time 1h 1m
Altitude 37000
Route ATSUB UT336 AYT UW77 HALIL
Aircraft B738/M-SDE2E3FGHIRWXY/LB1

Departure

Time 2026-05-05 12:45
Airport Gazipaşa-Alanya Airport (LTFG)

Arrival

Time 2026-05-05 13:47
Airport Esenboğa International Airport (LTAC)
Time Latitude Longitude Altitude Speed Heading
2026-05-05 12:34 36.29798 32.30296 110 ft 0 kts 172°
2026-05-05 12:38 36.29799 32.30296 110 ft 1 kts 172°
2026-05-05 12:39 36.29814 32.30293 110 ft 2 kts 171°
2026-05-05 12:39 36.29829 32.30291 111 ft 2 kts 197°
2026-05-05 12:39 36.29842 32.30301 111 ft 2 kts 231°
2026-05-05 12:39 36.29848 32.30314 111 ft 0 kts 257°
2026-05-05 12:40 36.29848 32.30323 111 ft 1 kts 262°
2026-05-05 12:40 36.29848 32.30324 111 ft 0 kts 261°
2026-05-05 12:42 36.29848 32.30322 111 ft 1 kts 261°
2026-05-05 12:42 36.29840 32.30257 111 ft 12 kts 260°
2026-05-05 12:43 36.29847 32.30171 111 ft 9 kts 323°
2026-05-05 12:43 36.29907 32.30157 111 ft 8 kts 351°
2026-05-05 12:43 36.29949 32.30219 111 ft 19 kts 83°
2026-05-05 12:43 36.29978 32.30471 112 ft 39 kts 81°
2026-05-05 12:44 36.30024 32.30850 112 ft 32 kts 81°
2026-05-05 12:44 36.30070 32.30999 112 ft 11 kts 67°
2026-05-05 12:44 36.30044 32.31000 112 ft 9 kts 258°
2026-05-05 12:44 36.30014 32.30770 112 ft 57 kts 261°
2026-05-05 12:45 36.29924 32.30007 112 ft 120 kts 261°
2026-05-05 12:45 36.29778 32.28760 175 ft 165 kts 260°
2026-05-05 12:45 36.29638 32.27405 990 ft 154 kts 264°
2026-05-05 12:45 36.29495 32.26033 1423 ft 172 kts 263°
2026-05-05 12:46 36.29327 32.24534 1927 ft 183 kts 263°
2026-05-05 12:46 36.29107 32.22916 2331 ft 199 kts 262°
2026-05-05 12:46 36.28685 32.21201 2726 ft 218 kts 244°
2026-05-05 12:46 36.27688 32.19703 3159 ft 236 kts 218°
2026-05-05 12:47 36.26158 32.18874 3668 ft 249 kts 190°
2026-05-05 12:47 36.24416 32.18890 4346 ft 252 kts 172°
2026-05-05 12:47 36.22718 32.19393 4968 ft 258 kts 155°
2026-05-05 12:47 36.21181 32.20610 5481 ft 269 kts 136°
2026-05-05 12:48 36.19955 32.22393 6034 ft 277 kts 121°
2026-05-05 12:48 36.19174 32.24548 6785 ft 277 kts 101°
2026-05-05 12:48 36.19078 32.26881 7491 ft 276 kts 80°
2026-05-05 12:48 36.19377 32.29234 8250 ft 279 kts 77°
2026-05-05 12:49 36.19690 32.31603 9011 ft 283 kts 78°
2026-05-05 12:49 36.19983 32.34018 9797 ft 286 kts 78°
2026-05-05 12:49 36.20269 32.36466 10470 ft 294 kts 78°
2026-05-05 12:49 36.20569 32.39016 10923 ft 310 kts 77°
2026-05-05 12:50 36.20893 32.41754 11358 ft 327 kts 77°
2026-05-05 12:50 36.21232 32.44606 11798 ft 343 kts 77°
2026-05-05 12:50 36.21600 32.47554 12218 ft 359 kts 76°
2026-05-05 12:50 36.22224 32.50590 12700 ft 368 kts 65°
2026-05-05 12:51 36.23451 32.53341 13478 ft 366 kts 49°
2026-05-05 12:51 36.25213 32.55590 14243 ft 365 kts 36°
2026-05-05 12:51 36.27257 32.57403 15145 ft 364 kts 28°
2026-05-05 12:51 36.29503 32.58748 15961 ft 363 kts 17°
2026-05-05 12:52 36.31910 32.59657 16779 ft 364 kts 12°
2026-05-05 12:52 36.34392 32.60391 17583 ft 367 kts 10°
2026-05-05 12:52 36.36885 32.61081 18381 ft 370 kts
2026-05-05 12:52 36.39389 32.61794 19138 ft 373 kts
2026-05-05 12:53 36.41900 32.62546 19932 ft 374 kts 10°
2026-05-05 12:53 36.44442 32.63369 20659 ft 378 kts 11°
2026-05-05 12:53 36.46924 32.64444 21265 ft 387 kts 18°
2026-05-05 12:53 36.49327 32.66058 21926 ft 397 kts 27°
2026-05-05 12:54 36.53545 32.70683 23152 ft 416 kts 40°
2026-05-05 12:54 36.55386 32.73463 23707 ft 424 kts 45°
2026-05-05 12:54 36.57138 32.76447 24338 ft 429 kts 46°
2026-05-05 12:55 36.58852 32.79512 24782 ft 436 kts 47°
2026-05-05 12:55 36.60556 32.82615 25381 ft 439 kts 47°
2026-05-05 12:55 36.62287 32.85775 25954 ft 442 kts 47°
2026-05-05 12:55 36.64024 32.88940 26515 ft 445 kts 47°
2026-05-05 12:56 36.65754 32.92082 26980 ft 449 kts 47°
2026-05-05 12:56 36.67525 32.95282 27459 ft 452 kts 47°
2026-05-05 12:56 36.69317 32.98512 27902 ft 456 kts 47°
2026-05-05 12:56 36.71131 33.01780 28601 ft 455 kts 47°
2026-05-05 12:57 36.72901 33.04975 29342 ft 451 kts 46°
2026-05-05 12:57 36.74694 33.08212 29852 ft 450 kts 46°
2026-05-05 12:57 36.76475 33.11417 29950 ft 452 kts 46°
2026-05-05 12:58 36.80144 33.17909 29982 ft 447 kts 44°
2026-05-05 12:58 36.82133 33.20833 29991 ft 434 kts 36°
2026-05-05 12:58 36.84465 33.23195 29982 ft 425 kts 25°
2026-05-05 12:58 36.87036 33.24939 29990 ft 413 kts 17°
2026-05-05 12:59 36.89713 33.26231 29994 ft 410 kts 12°
2026-05-05 12:59 36.95283 33.27696 29986 ft 400 kts 357°
2026-05-05 13:00 37.03479 33.26837 30002 ft 393 kts 349°
2026-05-05 13:01 37.14397 33.25077 29993 ft 393 kts 349°
2026-05-05 13:01 37.19825 33.24256 29998 ft 394 kts 350°
2026-05-05 13:02 37.25307 33.23439 29995 ft 393 kts 350°
2026-05-05 13:02 37.30781 33.22628 30000 ft 394 kts 350°
2026-05-05 13:03 37.36206 33.21822 29991 ft 395 kts 350°
2026-05-05 13:03 37.41724 33.21001 29986 ft 393 kts 350°
2026-05-05 13:04 37.47168 33.20190 29991 ft 393 kts 350°
2026-05-05 13:04 37.52617 33.19375 29981 ft 394 kts 350°
2026-05-05 13:05 37.58059 33.18561 29981 ft 394 kts 350°
2026-05-05 13:05 37.63537 33.17743 29984 ft 393 kts 351°
2026-05-05 13:06 37.69025 33.16919 29983 ft 394 kts 350°
2026-05-05 13:06 37.74523 33.16094 29979 ft 393 kts 351°
2026-05-05 13:07 37.79980 33.15270 29982 ft 395 kts 350°
2026-05-05 13:07 37.85478 33.14444 29981 ft 396 kts 350°
2026-05-05 13:08 37.90972 33.13614 29981 ft 394 kts 351°
2026-05-05 13:08 37.96419 33.12794 29974 ft 394 kts 350°
2026-05-05 13:09 38.01914 33.11964 29973 ft 394 kts 351°
2026-05-05 13:09 38.07412 33.11151 29973 ft 394 kts 351°
2026-05-05 13:10 38.12897 33.10356 29976 ft 395 kts 351°
2026-05-05 13:10 38.18335 33.09569 29975 ft 396 kts 351°
2026-05-05 13:11 38.23820 33.08774 29978 ft 395 kts 351°
2026-05-05 13:11 38.29273 33.07980 29969 ft 395 kts 351°
2026-05-05 13:12 38.34736 33.07182 29978 ft 396 kts 351°
2026-05-05 13:12 38.40204 33.06380 29975 ft 397 kts 351°
2026-05-05 13:13 38.45679 33.05576 29977 ft 395 kts 351°
2026-05-05 13:13 38.51121 33.04776 29976 ft 395 kts 351°
2026-05-05 13:14 38.56574 33.03972 29978 ft 395 kts 351°
2026-05-05 13:14 38.62063 33.03162 29969 ft 396 kts 351°
2026-05-05 13:15 38.67557 33.02352 29969 ft 395 kts 351°
2026-05-05 13:15 38.73015 33.01546 29972 ft 395 kts 352°
2026-05-05 13:16 38.78468 33.00737 29966 ft 397 kts 352°
2026-05-05 13:16 38.83973 32.99920 29965 ft 396 kts 351°
2026-05-05 13:17 38.89463 32.99103 29963 ft 398 kts 352°
2026-05-05 13:17 38.94946 32.98288 29962 ft 398 kts 352°
2026-05-05 13:18 39.00431 32.97470 29956 ft 398 kts 352°
2026-05-05 13:18 39.05943 32.96647 29959 ft 399 kts 351°
2026-05-05 13:19 39.11431 32.95826 29960 ft 398 kts 352°
2026-05-05 13:19 39.16971 32.94997 29958 ft 399 kts 352°
2026-05-05 13:20 39.22493 32.94173 29957 ft 400 kts 352°
2026-05-05 13:20 39.28048 32.93393 29960 ft 400 kts 353°
2026-05-05 13:21 39.33594 32.92693 29958 ft 399 kts 354°
2026-05-05 13:21 39.39200 32.92755 29959 ft 403 kts
2026-05-05 13:22 39.41982 32.93208 29826 ft 401 kts
2026-05-05 13:22 39.44693 32.93782 29403 ft 394 kts
2026-05-05 13:22 39.47403 32.94417 28839 ft 395 kts
2026-05-05 13:22 39.50094 32.95065 28083 ft 395 kts
2026-05-05 13:23 39.52798 32.95717 27245 ft 397 kts
2026-05-05 13:23 39.55524 32.96368 26346 ft 399 kts
2026-05-05 13:23 39.58247 32.97044 25559 ft 398 kts 11°
2026-05-05 13:23 39.60910 32.97930 24947 ft 394 kts 14°
2026-05-05 13:24 39.63525 32.99108 24298 ft 401 kts 20°
2026-05-05 13:24 39.66065 33.00566 23643 ft 401 kts 23°
2026-05-05 13:24 39.68551 33.02181 22972 ft 397 kts 25°
2026-05-05 13:24 39.70968 33.03835 22306 ft 394 kts 26°
2026-05-05 13:25 39.73370 33.05510 21637 ft 390 kts 26°
2026-05-05 13:25 39.75750 33.07173 20972 ft 387 kts 26°
2026-05-05 13:25 39.78107 33.08816 20318 ft 384 kts 26°
2026-05-05 13:25 39.80454 33.10446 19644 ft 383 kts 26°
2026-05-05 13:26 39.82793 33.12065 19248 ft 382 kts 26°
2026-05-05 13:26 39.85164 33.13681 18912 ft 387 kts 25°
2026-05-05 13:26 39.87672 33.15083 18404 ft 382 kts 17°
2026-05-05 13:26 39.90254 33.15738 18062 ft 368 kts
2026-05-05 13:27 39.92782 33.15597 17898 ft 353 kts 352°
2026-05-05 13:27 39.95202 33.14992 17749 ft 338 kts 347°
2026-05-05 13:27 39.97395 33.14061 17584 ft 326 kts 337°
2026-05-05 13:27 39.99341 33.12602 17409 ft 315 kts 326°
2026-05-05 13:28 40.01014 33.10782 17272 ft 305 kts 319°
2026-05-05 13:28 40.02487 33.08768 17118 ft 295 kts 313°
2026-05-05 13:28 40.03808 33.06692 16872 ft 287 kts 317°
2026-05-05 13:28 40.05462 33.05301 16517 ft 278 kts 344°
2026-05-05 13:29 40.07378 33.05096 16216 ft 273 kts
2026-05-05 13:29 40.09209 33.05782 15884 ft 271 kts 22°
2026-05-05 13:29 40.10847 33.06980 15573 ft 269 kts 36°
2026-05-05 13:29 40.12060 33.08828 15265 ft 270 kts 60°
2026-05-05 13:30 40.12608 33.11162 14961 ft 271 kts 77°
2026-05-05 13:30 40.12933 33.13598 14624 ft 270 kts 73°
2026-05-05 13:30 40.13646 33.15787 14303 ft 264 kts 54°
2026-05-05 13:30 40.14844 33.17605 13965 ft 260 kts 41°
2026-05-05 13:31 40.16218 33.19093 13635 ft 258 kts 36°
2026-05-05 13:31 40.17672 33.20491 13314 ft 257 kts 34°
2026-05-05 13:31 40.19110 33.21840 12996 ft 257 kts 34°
2026-05-05 13:31 40.20570 33.23220 12689 ft 255 kts 35°
2026-05-05 13:32 40.22014 33.24602 12368 ft 255 kts 35°
2026-05-05 13:32 40.23450 33.25982 12079 ft 253 kts 35°
2026-05-05 13:32 40.24890 33.27364 11744 ft 252 kts 35°
2026-05-05 13:32 40.26398 33.28590 11422 ft 251 kts 23°
2026-05-05 13:33 40.28109 33.29028 11074 ft 250 kts 356°
2026-05-05 13:33 40.29785 33.28460 10756 ft 250 kts 336°
2026-05-05 13:33 40.31300 33.27271 10394 ft 252 kts 321°
2026-05-05 13:33 40.32385 33.25489 10056 ft 254 kts 295°
2026-05-05 13:34 40.32801 33.23215 9742 ft 255 kts 275°
2026-05-05 13:34 40.32687 33.20899 9493 ft 252 kts 257°
2026-05-05 13:34 40.31953 33.18838 9363 ft 245 kts 231°
2026-05-05 13:34 40.30651 33.17355 9146 ft 241 kts 212°
2026-05-05 13:35 40.29169 33.16290 8841 ft 242 kts 208°
2026-05-05 13:35 40.27654 33.15249 8559 ft 240 kts 209°
2026-05-05 13:35 40.26188 33.14185 8281 ft 239 kts 215°
2026-05-05 13:35 40.24982 33.12685 7906 ft 240 kts 238°
2026-05-05 13:36 40.24236 33.10715 7471 ft 243 kts 252°
2026-05-05 13:36 40.23550 33.08657 6962 ft 253 kts 236°
2026-05-05 13:36 40.22154 33.07199 6322 ft 269 kts 204°
2026-05-05 13:36 40.20326 33.06515 5635 ft 281 kts 198°
2026-05-05 13:37 40.18523 33.05426 4910 ft 290 kts 214°
2026-05-05 13:37 40.16864 33.03827 4245 ft 295 kts 220°
2026-05-05 13:37 40.15274 33.02150 3999 ft 285 kts 221°
2026-05-05 13:37 40.13734 33.00571 3975 ft 268 kts 219°
2026-05-05 13:38 40.12283 32.99134 3929 ft 254 kts 219°
2026-05-05 13:38 40.10908 32.97800 3864 ft 241 kts 219°
2026-05-05 13:38 40.09604 32.96552 3918 ft 224 kts 219°
2026-05-05 13:38 40.08329 32.95427 3902 ft 220 kts 207°
2026-05-05 13:39 40.06809 32.95213 3939 ft 229 kts 166°
2026-05-05 13:39 40.05473 32.96352 4165 ft 239 kts 131°
2026-05-05 13:39 40.04445 32.98096 4391 ft 241 kts 129°
2026-05-05 13:39 40.03167 32.99394 4595 ft 236 kts 162°
2026-05-05 13:40 40.01566 32.99432 4821 ft 229 kts 202°
2026-05-05 13:40 40.00235 32.98503 4968 ft 206 kts 218°
2026-05-05 13:40 39.99404 32.97147 4977 ft 189 kts 257°
2026-05-05 13:40 39.99551 32.95520 4978 ft 185 kts 299°
2026-05-05 13:41 40.00426 32.94318 4977 ft 185 kts 331°
2026-05-05 13:41 40.01633 32.93673 4978 ft 187 kts 337°
2026-05-05 13:41 40.02834 32.93061 4950 ft 186 kts 336°
2026-05-05 13:41 40.04033 32.92469 4912 ft 187 kts 343°
2026-05-05 13:42 40.05331 32.92304 4870 ft 186 kts 355°
2026-05-05 13:42 40.06541 32.91774 4782 ft 186 kts 319°
2026-05-05 13:42 40.07081 32.90310 4670 ft 185 kts 271°
2026-05-05 13:42 40.06568 32.88792 4574 ft 192 kts 225°
2026-05-05 13:43 40.05463 32.87819 4579 ft 194 kts 214°
2026-05-05 13:43 40.04256 32.87032 4562 ft 195 kts 195°
2026-05-05 13:43 40.02918 32.87296 4568 ft 202 kts 149°
2026-05-05 13:43 40.02101 32.88732 4566 ft 203 kts 102°
2026-05-05 13:44 40.02301 32.90476 4576 ft 198 kts 56°
2026-05-05 13:44 40.03242 32.91750 4528 ft 195 kts 17°
2026-05-05 13:44 40.04528 32.91808 4585 ft 185 kts 347°
2026-05-05 13:44 40.05810 32.91657 4567 ft 184 kts
2026-05-05 13:45 40.06841 32.92592 4042 ft 192 kts 54°
2026-05-05 13:45 40.07474 32.94074 3717 ft 183 kts 54°
2026-05-05 13:45 40.08202 32.95247 3768 ft 147 kts 44°
2026-05-05 13:45 40.08937 32.96036 3594 ft 137 kts 28°
2026-05-05 13:46 40.09721 32.96736 3532 ft 137 kts 31°
2026-05-05 13:46 40.10513 32.97492 3386 ft 142 kts 32°
2026-05-05 13:46 40.11327 32.98254 3174 ft 146 kts 32°
2026-05-05 13:46 40.12111 32.98989 3128 ft 121 kts 38°
2026-05-05 13:47 40.12557 32.99411 3132 ft 33 kts 36°
2026-05-05 13:47 40.12595 32.99583 3136 ft 13 kts 94°